Location: Burkham Ranch
(38.4408°N, 119.1160°W)
Time: 01:24:54
(UTC+00:00)

Daily predictions for brighter satellites

Satellite Brightness Start Highest point End
(mag) Time Altitude Azimuth Time Altitude Azimuth Time Altitude Azimuth
NOAA 11 4.2 01:32:08 10° SSE 01:37:38 81° ENE 01:43:09 10° N
Meteor 2-5 Rocket 4.4 01:32:38 10° SSW 01:38:07 59° WNW 01:43:36 10° N
Cosmos 1939 Rocket 3.2 01:36:27 10° SSE 01:40:23 46° ENE 01:44:19 10° N
SKYMED 2 4.0 01:36:16 10° NNE 01:40:25 43° E 01:44:33 10° S
X-37B 0.9 01:47:31 10° WSW 01:50:39 60° NNW 01:53:23 13° ENE
Hubble Space Telescope 2.9 01:47:57 10° SW 01:50:53 19° S 01:53:49 10° SE
Cosmos 1315 Rocket 3.8 01:48:03 10° NNW 01:51:56 52° W 01:55:51 10° S
CZ-4 R/B 2.4 01:52:11 10° SE 01:55:35 26° ENE 01:58:57 10° NNE
Cosmos 2058 Rocket 3.2 01:51:25 10° N 01:55:51 55° E 02:00:16 10° SSE
CZ-2C R/B 4.2 01:54:06 10° NE 01:57:26 16° E 02:00:47 10° SE
Cosmos 1943 4.3 01:54:03 10° NW 01:59:28 48° WSW 02:04:50 10° S
SAR-Lupe-4 4.3 01:58:19 10° NE 02:01:32 31° E 02:04:44 10° SSE
Cosmos 1092 Rocket 4.4 02:00:46 10° SSE 02:06:26 39° E 02:12:05 10° NNE
Cosmos 1898 Rocket 4.3 02:01:58 10° SSE 02:06:29 30° E 02:10:23 13° NE
BREEZE-M DEB (TANK) 1.8 02:03:56 10° WNW 02:06:52 79° SW 02:09:01 11° SE
H-2A R/B 2.6 02:02:42 10° SE 02:07:04 32° ENE 02:11:33 10° N
Cosmos 1844 3.7 02:01:33 10° S 02:07:07 68° ESE 02:12:48 10° NNE
Okean 1-7 Rocket 3.6 02:02:36 10° S 02:07:07 84° E 02:11:43 10° N
Cosmos 1726 Rocket 4.1 02:03:22 10° NNW 02:07:42 64° W 02:12:02 10° S
Cosmos 1680 Rocket 4.4 02:07:07 10° N 02:11:32 26° ENE 02:15:52 10° ESE
NOSS 2-1 (C) 3.6 02:08:21 10° S 02:11:35 34° ESE 02:13:02 23° ENE
Cosmos 1626 Rocket 3.8 02:07:38 10° SSE 02:11:47 46° E 02:16:01 10° NNE
SAR-Lupe-1 4.4 02:08:47 10° NNE 02:12:12 42° E 02:15:35 10° S
CZ-2C R/B 3.1 02:07:33 10° SSE 02:12:43 66° ENE 02:18:14 10° N
CZ-2D R/B 3.1 02:10:45 10° SSE 02:14:36 78° ENE 02:18:27 10° N
ISS -2.3 02:12:01 10° W 02:15:06 32° NNW 02:17:20 16° NNE
Aureole 2 Rocket 3.5 02:12:52 10° SW 02:15:40 38° WNW 02:18:35 10° N
MOS 1 Rocket 3.0 02:11:26 10° NNE 02:15:45 83° ESE 02:20:02 10° S
CZ-4 R/B 4.3 02:12:50 10° SSE 02:16:56 71° ENE 02:21:04 10° N
NOSS 2-1 (D) 3.3 02:14:08 10° S 02:17:27 41° ESE 02:18:46 27° ENE
EXPRESS MD2 4.1 02:12:07 10° NW 02:19:36 57° NNE 02:22:00 23° E
USA 267 4.1 02:16:43 18° ENE 02:20:34 32° SE 02:26:15 10° S
Cosmos 1818 4.0 02:16:38 10° SW 02:21:59 61° WNW 02:27:23 10° NNE
Nadezhda 4 Rocket 4.0 02:16:00 10° S 02:22:16 90° ESE 02:28:30 10° N
Iridium 4 Rocket 4.1 02:19:29 10° NNE 02:24:34 35° E 02:29:15 10° SSE
Cosmos 1844 Rocket 3.0 02:19:09 10° SSW 02:24:47 69° WNW 02:30:26 10° NNE
Feng Yun 1-1 Rocket 4.4 02:20:50 10° S 02:26:13 75° WSW 02:31:45 10° NNW
Cosmos 44 3.2 02:21:57 10° SSW 02:26:33 63° ESE 02:29:49 21° NE
COSMOS 2455 4.1 02:21:16 10° SW 02:26:53 40° NW 02:32:33 10° NNE
COSMO-SKYMED 1 3.4 02:24:18 10° N 02:28:31 51° WNW 02:32:42 10° SSW
Cosmos 1689 Rocket 1.8 02:29:02 28° NNE 02:30:23 80° ESE 02:33:12 10° S
Cosmos 1758 Rocket 4.3 02:30:37 10° SSE 02:34:20 31° E 02:34:20 31° E
Meteor 2-10 Rocket 4.3 02:31:54 10° NNW 02:37:13 56° W 02:42:17 10° S
Cosmos 2278 Rocket 3.2 02:32:54 10° SSE 02:37:09 25° ESE 02:37:09 25° ESE
Cosmos 1937 Rocket 3.8 02:34:34 10° S 02:39:33 44° ESE 02:41:34 30° NE
Cosmos 1340 2.6 02:37:40 10° S 02:41:20 59° E 02:42:12 45° NE
Cosmos 1455 2.3 02:37:40 10° N 02:41:29 73° W 02:45:18 10° S
Meteor 1-21 Rocket 4.3 02:36:40 10° SSW 02:42:11 76° W 02:47:45 10° N
Okean-O 2.5 02:37:50 10° SSE 02:42:15 81° ENE 02:46:42 10° N
Helios 1A Rocket 2.9 02:38:18 10° SSE 02:42:21 59° ENE 02:46:27 10° N
CSL-04 Rocket 3.7 02:42:36 10° SSE 02:47:48 53° ENE 02:53:06 10° N
Lacrosse 5 1.8 02:43:28 10° NW 02:48:31 67° NE 02:50:24 37° ESE
CZ-4B R/B 4.3 02:47:00 10° NNW 02:49:15 17° WNW 02:51:27 10° WSW
Cosmos 2112 Rocket 4.1 02:44:31 10° N 02:49:36 49° ENE 02:51:22 35° ESE
ERS-2 3.6 02:48:48 10° N 02:52:10 36° WNW 02:55:31 10° SW
Cosmos 1703 3.5 02:48:34 10° SSW 02:52:25 67° W 02:55:29 16° N
Cosmos 1602 Rocket 3.5 02:48:06 10° S 02:52:25 82° W 02:56:21 13° N
Meteor 2-19 Rocket 4.5 02:49:17 10° SSE 02:55:16 56° E 03:01:16 10° NNE
YAOGAN 1 2.7 02:51:36 10° S 02:55:53 73° WSW 03:00:13 10° NNW
Cosmos 2026 Rocket 3.8 02:52:56 10° S 02:59:01 81° E 03:05:13 10° N
Aureole 3 4.3 02:56:38 10° NNW 02:59:39 36° W 03:02:25 10° SSW
Cosmos 1553 Rocket 4.3 02:56:34 10° N 03:10:49 - SSE 03:02:23 43° ENE
SJ 16-02 3.7 03:08:47 10° WSW 03:12:11 22° WNW 03:15:36 10° NNW
NOSS 2-1 (E) 4.1 03:09:17 10° SW 03:12:09 41° WNW 03:12:09 41° WNW
Cosmos 1812 Rocket 3.7 03:10:32 10° NNW 03:14:54 71° W 03:19:13 10° S
Meteor 2-15 4.3 03:16:36 10° N 03:22:46 77° E 03:28:53 10° SSE
ARGOS 3.4 03:18:56 10° S 03:24:14 68° WSW 03:29:36 10° NNW
Cosmos 2344 4.4 03:17:15 10° NNW 03:26:49 59° NE 03:31:38 40° ESE
X-37B 3.6 03:25:00 10° WNW 03:25:41 14° NW 03:25:41 14° NW
CZ-4 R/B 3.8 03:27:16 10° SSW 03:30:31 22° W 03:33:45 10° NW
Hubble Space Telescope 3.0 03:28:29 10° SW 03:30:34 18° SSW 03:30:34 18° SSW
CZ-2C R/B 3.1 03:35:36 33° N 03:38:04 63° WNW 03:43:37 10° SSW
H-2A R/B 4.0 03:42:20 10° SSW 03:46:29 26° W 03:50:43 10° NW
NOSS 3-1 (C) 4.0 03:40:11 10° NNW 03:48:01 86° ENE 03:49:29 66° SE
USA 267 3.4 04:04:05 66° NW 04:04:05 66° NW 04:10:16 10° WSW
USA 229 DEB 4.1 03:58:12 10° NNW 04:04:07 60° NNW 04:04:07 60° NNW
USA 229 4.2 03:58:18 10° NNW 04:04:08 59° NNW 04:04:08 59° NNW
Cosmos 2278 Rocket 3.8 04:15:53 10° SW 04:19:05 30° WSW 04:19:05 30° WSW
NOSS 3-1 (A) 4.5 04:13:34 10° NNW 04:19:20 56° NNW 04:19:20 56° NNW
Lacrosse 5 4.5 04:27:40 10° WNW 04:29:42 16° W 04:29:42 16° W
Atlas Centaur 2 4.3 11:35:34 27° SE 11:35:34 27° SE 11:40:45 10° E
